Location: Newark
(42.8481°N, 0.4872°E)
Time: 07:10:16
(UTC+00:00)

SR - Pass Details

Date: 09 November 2020
Orbit: 579 x 876 km, 66.7° (Epoch: 29 November)

Event Time Altitude Azimuth Distance (km) Brightness Sun altitude
Rises 22:29:48 0° 193° (SSW) 2,779 - -60.1°
Reaches altitude 10° 22:32:03 10° 186° (S) 1,889 - -60.4°
Maximum altitude 22:36:03 44° 115° (ESE) 829 - -60.8°
Drops below altitude 10° 22:40:14 10° 43° (NE) 1,976 - -61.2°
Sets 22:42:38 0° 37° (NE) 2,923 - -61.4°
